Wind_Speed
42 40 44 49 50 48 45 42 40 32 26 24 23 24 23 20 18 17 18 17 17 19 21 22 21 20 18 16 19 23 25 27 27 27 28 27 27 25 21 19 17 14 13 12 11 10 9 10 10 8 10 12 12 12 11 10 10 12 13 14 14 13 13 12 11 10 9 7 6 5 3 2 1 1 1 2 4 5 6 8 10 12 13 14 15 16
42 44 50 50 46 45 43 41 38 35 30 24 22 23 23 22 18 16 18 18 18 19 20 21 22 21 18 18 20 23 26 29 32 33 32 31 29 26 23 20 18 16 15 14 12 11 11 11 11 9 11 13 13 13 12 12 11 12 12 12 13 13 13 10 9 8 6 5 3 2 1 1 2 3 4 5 6 7 9 10 11 13 15 16 18 19
44 47 48 45 43 42 41 40 38 36 34 28 23 23 23 22 18 16 20 20 17 18 19 16 19 21 18 21 23 24 26 28 34 38 35 33 30 28 26 22 19 18 16 15 13 12 13 12 11 11 12 13 14 14 14 13 12 11 11 11 12 12 11 9 7 6 4 3 1 1 2 3 4 5 6 7 8 9 10 11 13 14 16 18 19 20
44 44 44 42 42 42 40 40 39 37 36 34 28 26 25 22 18 16 21 22 17 17 18 14 16 20 19 24 31 31 33 35 38 41 38 36 33 30 28 23 20 18 16 15 13 13 14 13 12 12 13 13 14 15 15 14 13 12 11 11 11 11 9 7 5 4 2 1 2 3 4 5 6 7 7 8 9 10 11 12 14 15 17 19 20 19
41 37 41 43 40 41 41 39 40 39 38 37 34 29 25 22 19 16 18 21 20 17 19 17 13 16 20 27 35 38 38 42 43 41 39 37 36 33 28 24 21 17 15 13 13 13 14 13 13 14 14 14 15 16 16 14 13 12 11 11 10 9 7 5 4 2 2 3 4 5 6 6 7 8 8 9 10 11 12 13 14 16 17 18 18 18
38 30 35 43 42 42 41 40 41 41 39 38 36 32 25 22 20 18 15 15 16 14 19 21 10 7 19 30 36 39 39 41 41 39 37 34 33 32 27 24 21 17 15 13 12 12 13 13 13 13 13 14 14 15 15 13 12 11 10 9 8 7 6 5 4 4 4 5 6 7 8 8 8 8 9 10 11 12 13 13 14 14 15 16 17 18
39 28 28 38 43 43 41 41 42 40 39 37 36 33 26 23 22 20 16 11 7 5 9 19 15 7 16 29 36 41 42 41 39 37 35 31 28 28 25 22 20 17 16 14 13 12 11 12 13 12 12 14 14 14 14 13 12 11 9 8 7 6 6 6 5 6 6 7 7 8 8 9 9 9 10 11 12 13 14 14 13 13 14 15 17 19
42 33 24 28 37 42 43 44 42 41 37 31 33 32 27 26 25 21 18 14 8 4 3 13 20 15 17 27 33 38 43 42 39 38 34 31 30 27 23 20 19 17 15 14 12 11 11 11 13 12 12 13 14 15 14 13 12 10 9 8 8 7 7 7 7 7 8 8 9 9 9 9 9 10 11 13 14 14 14 14 13 13 15 17 18 20
36 39 31 24 30 40 47 46 41 40 34 26 29 30 27 27 26 23 21 18 14 11 9 14 22 17 14 27 32 33 41 43 41 40 35 32 31 26 21 21 20 18 15 14 12 11 10 10 12 14 13 12 13 14 13 13 12 11 10 10 9 8 7 7 8 9 9 9 9 9 9 9 9 11 12 13 14 14 14 13 13 14 15 17 19 20
24 37 37 27 28 36 43 42 39 37 31 26 27 28 27 22 18 19 18 18 16 11 15 21 25 16 8 24 35 32 38 43 40 39 36 33 30 24 23 23 22 19 16 16 14 12 11 11 12 13 14 13 12 12 12 13 12 12 11 10 9 8 7 7 8 9 9 9 9 9 9 9 10 12 13 13 14 13 13 13 14 15 16 17 18 20
16 23 34 34 31 29 32 36 38 35 29 27 28 26 21 14 11 11 12 15 10 9 23 27 26 22 9 20 37 35 36 41 40 40 39 37 32 28 27 26 24 22 19 17 16 14 14 13 13 13 15 15 13 12 12 12 12 11 11 10 8 7 7 9 9 9 9 9 10 9 9 10 11 12 13 13 12 12 12 13 14 15 16 17 18 19
20 15 28 37 34 26 24 29 35 34 30 29 28 26 18 9 10 9 10 15 6 8 26 28 26 26 14 17 35 37 36 39 39 40 41 39 35 31 30 28 26 23 20 19 17 17 16 15 13 12 14 16 16 15 13 12 12 12 11 10 8 8 9 10 10 9 9 9 9 9 10 12 12 13 12 12 11 12 12 13 14 15 15 16 17 19
31 24 22 28 32 30 23 24 31 32 32 32 28 28 19 7 8 9 6 8 7 9 18 18 19 23 17 20 31 36 38 39 39 40 40 37 35 32 31 29 27 24 22 20 19 20 19 17 14 12 14 17 18 17 15 15 14 14 12 10 9 9 10 10 10 9 9 9 9 11 12 13 13 12 11 11 11 12 12 13 14 14 15 16 17 19
31 28 24 25 30 34 29 27 33 34 36 37 34 32 22 8 4 7 5 2 6 12 14 13 14 15 14 18 26 36 40 39 39 40 38 34 32 32 31 30 28 26 23 21 22 22 20 18 16 14 15 17 18 18 17 17 17 15 13 11 10 11 11 11 10 9 9 9 11 12 12 13 13 12 11 11 12 12 12 13 13 14 14 16 17 18
26 23 28 33 30 32 35 32 32 34 35 36 36 33 25 15 7 5 6 2 1 3 5 10 12 8 9 13 23 37 41 39 40 39 36 34 34 34 33 32 29 26 24 22 22 22 20 19 18 18 17 18 18 18 18 19 18 16 14 12 12 11 12 11 9 8 9 10 12 12 12 12 12 11 11 11 12 12 13 13 13 14 15 16 17 18
29 24 28 31 27 29 34 32 29 30 30 32 33 32 31 30 19 6 4 6 6 4 4 11 11 8 10 12 21 36 41 41 40 38 37 37 37 38 35 33 29 25 24 22 21 21 21 21 21 20 21 20 18 17 18 19 18 17 15 13 12 12 11 10 9 9 10 11 11 11 11 11 11 11 12 12 12 13 13 13 14 14 15 16 17 17
26 24 26 28 26 29 31 31 31 29 28 29 32 36 41 38 25 9 2 7 9 4 4 9 8 9 11 10 20 35 41 42 41 39 40 39 40 40 36 32 29 26 26 24 24 25 24 24 24 23 24 22 19 17 18 19 19 18 16 13 12 12 10 9 9 10 11 11 11 10 11 11 12 12 12 13 13 13 13 14 14 14 14 15 17 17
20 16 24 29 26 28 30 26 30 33 27 26 33 40 38 30 24 19 6 4 5 2 4 8 9 14 15 12 22 36 40 42 42 40 41 41 41 40 36 33 31 29 28 27 27 26 25 26 25 25 24 23 20 18 19 20 20 19 16 13 12 10 9 9 10 10 11 10 10 11 11 12 13 13 14 14 13 13 14 14 14 14 15 16 17 17
20 12 16 29 29 26 28 25 26 33 31 26 30 35 29 21 22 26 12 2 4 2 1 5 8 16 20 19 28 37 39 41 41 40 42 42 41 39 36 35 34 32 30 29 28 26 26 27 27 25 24 22 21 21 21 21 20 18 15 13 11 9 9 10 11 11 10 10 10 11 12 13 14 15 15 14 14 14 15 15 15 16 16 16 18 18
20 14 8 21 31 25 26 29 30 32 35 33 27 24 26 25 26 27 16 4 5 4 1 4 5 12 20 24 30 36 39 40 38 39 41 41 40 39 38 37 35 33 31 29 28 27 28 28 27 26 24 22 22 22 22 21 19 17 14 12 11 10 10 11 11 10 10 10 11 12 13 15 16 16 16 15 15 15 16 16 17 17 17 18 19 20
17 18 10 13 27 28 27 34 38 36 37 39 32 24 28 31 30 27 18 9 7 5 3 4 3 11 20 24 27 31 36 39 39 39 40 41 40 40 38 38 36 33 31 29 28 28 29 28 27 25 22 21 21 19 19 20 18 16 14 12 12 11 11 11 10 10 10 11 12 13 14 15 16 17 17 17 17 17 17 18 18 19 20 20 21 22
18 18 16 12 20 30 33 34 37 36 34 37 37 32 31 34 31 21 12 12 11 8 8 7 3 11 22 23 25 29 33 38 41 40 40 42 42 41 39 38 35 32 30 29 29 29 29 29 28 24 20 20 19 17 18 18 17 16 14 13 12 11 11 10 10 11 11 12 13 14 15 16 17 17 18 18 18 19 19 19 20 20 21 22 23 24
22 15 14 11 12 21 29 29 30 31 32 34 35 35 33 32 33 23 11 12 12 8 11 11 3 9 23 25 25 28 31 34 38 40 41 42 42 41 38 35 33 31 30 29 29 30 30 29 27 22 20 20 19 18 18 18 17 15 13 13 12 12 11 10 10 11 12 13 14 15 16 17 18 18 19 19 19 20 20 21 21 22 23 24 25 25
26 18 15 11 9 12 19 25 28 29 31 33 35 38 37 32 33 30 21 16 14 11 11 8 2 8 22 27 27 28 30 30 32 37 41 42 42 38 35 35 34 32 31 30 30 30 29 29 26 22 20 20 19 19 18 18 16 14 13 13 13 12 11 11 11 11 12 13 14 16 17 17 18 18 19 20 20 21 21 22 22 23 24 25 26 27
26 22 19 9 4 5 11 15 20 26 31 35 36 38 40 35 33 33 28 20 16 18 18 10 3 10 23 29 29 29 31 31 29 33 38 41 41 37 35 36 35 33 32 32 30 29 28 28 26 22 21 20 20 20 19 18 16 14 14 13 12 12 11 11 11 11 12 13 14 16 17 17 18 19 20 20 21 22 22 23 24 25 25 26 27 28
25 22 21 13 4 4 4 4 13 25 31 34 36 37 38 37 34 33 30 21 15 20 23 16 10 15 25 30 32 32 33 34 33 33 35 38 39 39 38 37 34 32 32 30 28 27 27 25 23 21 20 21 21 20 19 18 16 14 14 13 12 12 12 12 12 12 12 13 15 16 17 18 19 19 21 22 23 23 24 24 25 25 26 26 26 27
24 23 21 17 13 10 7 3 8 23 32 34 35 36 37 36 33 30 26 23 21 20 20 18 17 21 28 32 35 37 36 37 37 36 36 37 39 40 39 35 32 31 30 27 25 25 23 21 19 19 20 22 21 20 18 17 16 14 14 13 13 13 13 12 12 12 12 13 15 16 17 18 19 20 22 23 23 24 24 25 25 25 26 26 27 27
24 26 24 19 15 14 14 12 9 16 31 37 35 35 36 36 35 29 21 19 23 21 16 16 20 22 26 33 36 37 37 37 37 38 38 39 39 38 36 33 32 31 29 26 23 21 19 17 16 18 21 22 20 19 17 16 16 15 14 14 14 13 13 13 12 12 13 14 15 16 17 18 19 20 21 22 23 24 25 25 26 26 27 27 28 28
24 25 25 23 16 12 15 17 13 12 25 32 33 32 34 35 36 34 24 16 19 22 19 19 22 21 21 27 32 34 34 35 36 38 40 39 37 35 33 32 31 29 27 23 20 18 17 16 16 18 20 20 19 17 17 17 17 16 15 14 14 13 13 13 13 13 13 14 15 16 17 18 19 20 21 22 23 24 25 26 26 27 27 27 28 28
24 23 23 22 18 14 13 14 13 13 19 26 28 29 30 30 31 34 30 20 16 20 22 21 22 20 18 22 30 34 34 33 35 37 39 38 36 34 31 30 29 26 23 20 18 18 17 16 17 18 18 18 18 18 18 18 17 16 14 13 13 12 13 14 14 15 14 15 15 16 17 18 19 20 22 23 24 25 25 26 26 26 27 27 28 28
25 23 20 17 16 16 16 13 13 16 18 23 27 27 28 27 26 29 29 22 18 21 22 23 26 25 21 22 29 34 34 33 35 37 38 37 35 33 30 28 26 24 21 19 18 19 18 17 18 19 19 19 19 18 18 17 15 13 12 12 12 12 14 15 15 15 14 14 15 16 18 19 20 21 22 23 24 24 25 25 26 26 27 28 28 29
25 23 18 16 17 18 18 15 18 17 15 20 25 26 27 26 25 26 25 21 20 22 24 27 29 25 22 24 28 32 33 33 34 37 38 37 34 32 29 26 24 22 20 20 20 20 19 20 21 21 20 19 18 17 16 15 13 11 11 11 12 14 15 15 14 14 14 14 16 17 18 20 21 22 23 24 24 25 26 26 27 27 28 28 29 30
24 22 18 18 18 19 19 18 21 18 12 11 16 21 25 26 25 24 22 19 20 22 23 26 25 20 21 25 27 31 33 33 34 36 37 35 32 29 25 23 22 21 21 21 21 20 20 23 23 21 20 18 16 16 15 14 11 10 10 12 13 15 15 14 13 13 13 15 16 18 19 20 21 22 23 24 24 25 26 27 27 28 28 29 30 30
24 22 21 21 18 19 20 16 16 13 9 7 9 13 18 23 25 24 21 20 22 23 20 19 19 19 22 24 26 29 33 33 32 31 29 27 24 22 22 21 21 21 22 23 21 20 22 23 22 20 18 16 15 15 14 11 10 10 11 12 13 14 13 13 13 13 14 15 17 18 19 20 21 22 23 23 24 25 26 27 27 28 28 28 28 28
31 28 24 21 17 19 20 14 8 6 6 9 11 8 10 17 21 21 19 20 24 24 20 18 19 20 22 25 27 29 31 31 27 24 21 19 16 15 17 19 21 22 22 21 21 23 24 22 18 17 16 15 15 14 11 9 9 10 11 12 12 12 12 12 13 13 14 16 17 18 19 20 21 21 22 23 23 24 24 25 25 25 25 25 25 25
34 31 25 20 16 14 13 8 5 4 5 8 10 8 9 13 17 19 19 21 25 24 21 22 23 23 25 28 30 30 30 30 27 23 20 18 16 13 12 15 19 20 19 18 19 22 21 17 15 15 15 15 14 12 9 8 9 10 10 11 11 12 12 12 12 13 14 16 17 18 18 19 19 19 20 20 20 21 21 22 22 22 22 22 22 22
32 29 24 21 14 9 8 7 7 6 5 6 8 8 9 12 15 17 17 20 23 23 22 24 26 26 28 30 32 30 29 29 28 27 24 19 16 14 12 13 16 17 17 18 18 18 16 15 16 16 15 14 11 9 8 8 9 9 9 10 11 11 11 11 11 13 14 15 16 17 17 17 16 16 16 16 17 17 18 18 18 18 19 19 20 21
30 29 24 19 12 8 9 9 6 3 2 6 8 8 9 10 12 14 15 18 23 24 22 23 25 26 27 29 33 32 30 30 30 30 28 23 18 18 17 17 17 15 16 18 18 18 17 17 17 15 13 11 9 7 7 7 7 8 8 9 10 10 10 10 11 12 13 14 14 14 14 14 13 13 13 13 13 14 14 15 16 17 18 20 21 22
28 30 25 20 16 13 11 7 4 2 3 7 9 8 9 10 13 14 13 17 24 25 22 22 23 24 25 26 28 30 30 31 31 32 31 27 23 22 21 19 18 17 18 18 18 18 18 17 15 13 10 9 7 6 6 6 6 7 7 8 9 9 10 10 11 11 11 11 11 11 11 11 11 10 10 11 11 12 14 15 17 19 20 22 23 24
27 29 27 25 21 17 13 8 5 4 6 11 12 11 11 13 16 16 11 15 23 24 21 21 21 22 24 25 26 27 27 23 22 28 32 29 25 24 21 19 18 19 19 19 18 18 17 15 13 10 9 7 6 5 5 5 5 6 6 7 8 9 10 11 10 8 8 8 8 8 8 8 8 9 10 11 12 14 16 17 18 20 21 22 24 25
26 26 26 24 21 17 14 10 6 5 10 15 17 17 17 16 19 18 11 12 20 24 22 21 21 20 23 26 29 30 27 19 15 22 29 29 27 27 24 22 21 19 17 17 17 17 15 13 11 9 8 7 5 4 4 5 5 6 7 7 8 9 9 9 7 6 5 5 5 6 6 7 9 10 11 13 14 15 17 18 19 21 22 23 24 26
23 21 19 19 18 16 14 10 6 6 13 19 21 23 22 18 17 17 12 9 15 23 23 22 23 22 21 25 28 27 26 23 20 22 27 27 27 27 27 25 22 20 18 18 18 16 13 11 9 8 7 6 5 5 6 6 6 7 8 8 8 8 7 5 4 3 3 4 5 6 8 9 10 11 12 13 15 16 17 18 20 22 22 23 24 25
20 17 15 16 16 14 13 10 5 5 15 22 24 26 26 20 14 14 14 10 14 21 23 23 25 24 20 23 25 24 24 25 23 24 26 26 27 27 25 23 21 19 19 19 17 14 12 11 9 7 7 6 6 7 7 8 8 9 8 8 7 6 4 2 1 2 3 5 6 7 9 10 10 12 13 14 15 16 18 19 20 21 22 23 24 25
18 16 15 17 16 13 13 12 7 8 16 23 24 25 26 21 15 14 16 14 15 20 23 24 27 26 22 22 23 24 26 26 25 27 27 26 28 28 24 22 21 20 20 19 16 13 12 11 9 7 7 7 8 8 9 9 9 8 7 6 4 3 2 2 3 4 5 6 7 8 9 10 11 12 13 14 15 17 18 19 20 21 22 23 24 25
18 17 16 17 18 16 15 16 14 11 14 20 23 23 23 22 18 17 18 17 18 22 24 23 25 27 24 22 22 24 27 26 25 28 28 26 29 29 25 22 21 21 22 20 16 14 14 11 8 7 8 9 10 10 10 9 8 6 4 3 3 3 4 4 5 6 6 7 7 8 9 11 12 12 12 14 15 17 18 19 20 20 21 22 23 24
17 18 15 15 18 17 15 15 15 12 12 17 22 23 25 24 21 19 20 18 19 23 24 22 23 26 25 23 23 25 28 27 27 29 29 27 28 30 27 24 23 23 24 21 18 16 15 12 9 9 10 10 10 10 9 8 6 4 4 4 5 6 6 6 6 7 7 8 8 9 10 11 11 12 12 14 15 16 17 18 19 20 21 22 23 24
17 17 15 14 16 16 14 14 15 13 11 15 21 25 26 26 23 21 20 18 16 18 21 22 23 24 25 24 24 26 29 29 27 29 30 30 29 30 29 26 23 22 23 22 19 17 15 13 11 10 11 10 10 9 8 8 7 7 7 8 8 8 7 7 8 8 8 8 8 9 10 11 11 12 13 14 14 15 16 17 18 19 20 20 22 23
18 16 16 15 14 14 13 13 14 13 12 14 21 25 25 24 24 22 20 18 15 14 18 22 23 24 25 25 25 26 28 28 27 28 31 32 32 31 29 26 22 21 22 22 20 16 14 13 11 10 11 10 10 9 9 9 9 10 10 10 9 9 8 8 8 8 8 8 8 9 10 10 11 12 13 13 14 14 15 16 17 18 19 20 21 22
19 18 18 17 15 14 13 13 13 13 14 16 21 24 23 22 22 23 22 21 19 17 19 24 26 25 25 26 26 26 28 28 27 27 29 32 33 32 29 25 21 20 20 19 17 14 14 13 11 11 10 9 9 10 10 10 10 11 10 10 10 10 9 9 8 8 8 8 8 9 9 10 11 11 12 12 13 14 15 16 17 18 19 19 20 22
19 18 19 19 17 14 12 10 11 12 13 16 19 21 21 20 21 23 23 23 22 21 22 26 28 27 26 26 27 27 28 28 28 27 27 30 32 32 27 21 18 18 19 17 14 13 14 13 11 11 10 9 11 11 11 11 11 11 11 11 11 11 10 9 8 8 7 7 8 8 9 10 11 11 11 12 13 13 14 16 17 18 19 19 20 21
16 17 18 16 13 10 8 9 10 11 11 14 17 19 19 19 19 21 22 22 22 22 24 27 29 29 27 28 28 28 28 29 29 28 27 27 28 27 21 16 16 18 18 15 13 13 14 12 11 10 10 11 12 12 12 13 13 12 13 13 13 12 11 9 8 8 7 8 8 8 9 10 10 10 11 12 12 13 15 16 17 18 19 20 21 21
Wind_Direction
196 201 205 206 206 205 205 208 212 213 209 208 210 210 211 211 208 207 206 200 198 206 209 209 215 222 227 219 208 208 208 208 209 213 216 209 200 198 199 201 203 202 202 200 194 199 206 197 194 192 183 178 172 165 164 164 156 146 142 140 139 139 139 136 134 134 131 128 126 123 123 128 149 213 266 289 301 306 311 311 311 310 308 305 300 299
198 205 209 208 207 206 207 209 212 214 209 208 209 208 212 215 211 204 202 201 201 209 215 214 220 229 229 220 214 212 210 211 213 216 219 212 200 197 199 198 202 206 204 201 199 203 202 193 196 197 189 182 172 166 166 163 156 150 146 144 144 146 145 142 142 142 139 134 127 116 91 318 304 300 299 299 298 299 301 303 305 306 306 304 302 301
201 209 211 209 209 207 208 211 212 213 211 210 208 206 212 213 210 203 196 199 205 216 221 219 225 233 225 211 211 216 218 218 216 216 217 214 204 195 197 200 202 206 206 202 202 204 199 193 198 198 190 184 173 168 168 164 159 156 152 148 149 152 152 149 146 145 144 139 123 316 305 303 300 302 302 302 301 299 299 298 300 302 302 301 300 300
202 211 211 208 209 208 209 212 212 213 214 214 211 209 211 207 205 204 197 200 212 222 228 229 232 233 218 204 206 209 212 214 216 215 207 205 206 199 196 200 203 207 209 207 206 204 200 196 198 197 190 183 175 171 172 168 164 163 158 152 150 151 155 152 146 143 145 206 291 296 299 298 296 300 303 304 303 300 299 297 297 299 299 298 297 296
203 210 210 208 208 209 210 212 213 214 216 217 216 215 211 202 201 201 197 206 217 227 233 232 230 224 205 197 204 208 209 210 211 212 204 195 196 196 195 197 200 206 212 214 211 208 206 202 199 198 193 186 180 177 176 174 171 168 161 154 150 151 154 154 157 176 230 262 279 288 293 297 298 301 302 300 300 297 296 295 294 295 295 294 294 294
204 206 210 209 207 209 211 212 213 213 217 218 218 218 210 201 203 203 197 207 219 228 236 232 222 202 196 195 203 208 211 213 210 210 210 201 192 190 192 194 196 202 209 211 212 213 212 206 200 196 191 185 183 181 179 179 176 171 167 160 158 161 168 178 194 220 246 261 272 282 289 297 301 300 299 296 296 297 295 293 291 290 290 290 291 294
206 201 208 210 209 209 210 214 213 212 217 221 221 216 206 203 213 217 213 214 225 230 235 232 227 201 191 197 203 206 209 214 215 213 212 206 194 190 190 193 198 203 208 209 207 213 215 209 205 199 189 183 182 181 180 182 180 178 177 173 175 183 194 208 220 237 252 261 269 279 290 299 302 299 298 297 296 297 297 296 294 292 293 293 294 296
210 200 199 208 211 211 212 213 212 211 215 221 222 214 205 209 218 224 223 223 240 270 271 237 228 213 198 203 206 207 208 210 214 215 210 200 191 190 190 195 204 209 215 215 205 205 210 209 209 204 195 188 185 185 184 185 184 183 186 187 193 203 213 224 236 247 254 262 271 284 293 297 299 299 299 299 300 300 299 299 298 296 296 296 298 301
214 207 200 200 207 213 215 213 210 210 212 219 221 213 209 216 224 229 228 232 248 269 274 238 220 211 204 207 205 205 207 207 210 211 206 199 192 190 192 197 207 213 216 215 206 203 207 209 211 209 207 203 195 192 190 190 189 188 194 198 202 210 221 233 244 251 255 265 276 285 290 291 293 295 297 299 300 300 299 298 297 296 296 298 300 304
218 215 209 203 208 215 217 215 211 209 209 214 217 213 214 222 231 233 233 242 251 255 255 238 217 211 205 201 199 199 204 204 205 203 199 198 196 193 195 198 207 213 213 214 212 213 213 213 215 215 220 220 211 204 199 197 196 195 198 200 205 214 228 240 245 251 258 268 278 282 284 286 290 292 295 297 297 296 294 293 294 296 299 301 303 307
212 218 215 212 214 217 218 217 214 211 209 213 213 211 218 223 221 226 233 242 251 241 243 241 220 213 219 202 197 196 202 202 200 196 192 195 197 196 198 201 208 212 215 218 218 221 225 225 222 218 222 228 226 220 213 207 203 201 204 206 213 224 236 244 247 255 263 269 274 277 282 286 290 292 293 294 292 290 290 291 294 298 301 303 307 311
203 203 216 218 217 215 216 216 215 212 208 210 212 209 212 211 201 216 231 226 230 241 240 241 224 214 218 212 202 198 203 206 202 197 193 194 196 197 197 201 209 213 218 221 221 225 231 233 233 224 220 224 227 225 222 221 216 213 215 217 224 237 245 253 259 266 270 271 275 280 287 291 291 290 289 287 286 286 289 292 295 299 303 307 312 315
210 203 209 219 220 213 210 212 211 210 208 207 208 205 203 182 181 206 220 214 220 240 243 242 224 214 219 225 213 203 204 209 209 203 197 196 195 195 198 203 210 215 220 222 221 227 233 238 243 237 221 216 220 225 225 227 228 225 225 226 237 248 255 263 270 274 274 275 283 289 292 292 289 285 283 282 285 289 292 294 296 301 305 311 315 317
213 213 209 212 218 212 207 208 203 201 205 206 204 200 196 169 156 201 202 219 240 239 247 240 216 210 220 227 218 208 206 209 209 201 197 199 197 195 201 207 212 217 222 221 220 227 234 239 246 244 231 220 220 226 231 233 235 232 231 235 244 253 261 269 273 272 275 281 287 291 291 288 285 284 284 286 291 296 296 296 298 302 308 312 315 317
203 213 211 205 211 210 206 210 206 198 201 206 207 204 201 197 191 195 194 191 201 205 217 205 199 206 213 213 212 207 203 205 208 202 197 200 201 201 206 209 213 219 224 225 226 234 239 243 249 248 243 236 230 231 236 240 240 235 233 238 246 255 262 266 266 267 276 284 287 289 288 286 286 286 287 289 294 297 296 297 299 304 310 313 315 317
201 213 212 201 205 208 205 211 211 203 202 205 207 208 212 210 203 197 214 199 174 118 122 172 189 209 202 200 207 204 201 202 205 201 197 198 202 206 209 210 215 220 224 227 229 236 242 247 251 251 249 247 242 242 244 244 242 237 236 240 247 256 259 257 259 267 277 282 284 286 286 285 285 285 288 292 296 296 295 297 300 305 311 314 317 319
203 218 216 202 203 205 204 208 210 207 205 204 204 210 215 213 208 217 240 182 181 166 155 177 184 183 177 182 199 201 201 201 200 199 200 200 203 208 209 211 215 218 221 223 224 232 242 247 249 250 250 249 247 251 253 249 244 240 240 244 249 253 251 251 260 270 276 278 281 283 282 282 284 287 292 294 295 294 293 297 300 305 311 314 317 319
201 224 220 208 206 204 202 207 213 214 211 204 207 214 216 212 218 234 244 131 160 158 172 188 179 170 166 165 188 195 198 198 196 194 195 198 203 208 210 211 215 217 220 223 227 234 242 247 251 250 249 252 253 255 256 252 245 240 242 245 247 247 245 252 264 269 275 278 281 283 283 285 287 290 293 292 291 293 294 297 300 304 309 312 315 316
204 226 227 212 210 203 197 203 215 218 217 215 216 219 212 199 213 227 232 162 163 139 163 204 190 185 182 175 185 194 197 196 193 191 195 200 204 208 210 212 215 218 220 224 228 233 238 245 251 251 252 257 260 260 257 250 240 235 239 241 239 239 242 254 262 267 273 277 281 284 284 287 290 292 293 292 292 293 294 296 298 301 305 308 311 313
198 213 237 211 207 205 200 205 213 213 213 217 223 221 209 203 211 218 222 209 157 143 168 197 197 208 199 188 191 198 198 196 194 195 201 204 206 209 212 214 216 217 219 223 227 234 241 247 252 254 257 261 263 261 250 238 231 229 233 232 229 232 241 253 261 265 271 275 279 282 284 288 292 294 294 293 292 291 291 293 294 296 300 302 305 308
195 207 225 199 197 206 209 209 211 210 207 209 211 204 198 202 208 213 223 225 174 145 159 167 197 224 208 194 194 199 199 200 201 202 204 206 207 211 214 215 217 217 218 222 228 236 243 249 253 256 259 263 264 253 235 226 225 225 225 223 224 233 242 251 258 264 269 273 277 280 284 288 292 293 293 292 290 290 290 291 291 292 295 297 299 302
207 209 223 211 194 206 214 213 213 213 212 211 209 204 200 199 198 200 218 219 194 169 176 172 176 215 204 195 195 199 198 201 206 208 206 205 208 211 213 216 218 218 218 222 228 236 242 246 251 254 259 264 259 240 225 225 223 218 217 219 226 235 241 247 253 261 268 272 277 280 283 288 290 291 291 290 290 290 291 292 292 293 294 295 296 298
216 217 230 238 219 214 216 218 220 220 221 221 218 217 212 203 199 198 201 202 186 162 173 170 150 203 196 191 196 201 201 202 207 210 208 206 209 212 213 215 217 219 222 226 231 237 242 247 252 255 258 260 251 232 225 226 220 213 214 219 226 233 239 246 252 260 268 272 278 283 285 288 290 290 290 290 291 292 293 294 294 295 296 296 297 297
218 224 233 251 265 236 215 217 223 224 225 224 221 221 218 212 208 209 216 213 188 166 165 152 98 204 191 190 196 201 204 205 207 210 209 207 208 209 210 213 218 222 226 229 233 237 243 249 254 256 258 256 242 227 223 221 215 212 216 221 228 235 241 250 255 262 269 275 280 284 286 289 289 290 290 292 294 294 295 295 295 296 296 296 296 296
215 222 229 243 297 238 210 218 221 218 220 221 218 218 219 218 216 215 219 217 199 195 195 181 172 197 190 191 196 198 203 209 209 210 209 207 206 205 207 214 221 225 228 231 234 238 243 250 255 256 254 246 230 219 217 216 212 213 219 224 232 238 244 252 258 266 272 278 283 285 288 290 289 290 292 293 295 295 296 296 295 295 295 295 295 295
214 218 224 224 212 191 198 223 214 208 211 213 213 215 215 215 218 218 212 202 194 199 199 192 180 179 183 190 195 196 201 206 208 210 212 210 208 207 210 217 222 226 231 234 237 240 244 250 256 255 245 232 220 213 212 212 212 215 220 227 234 240 248 255 261 269 275 282 286 288 290 291 292 293 294 295 295 296 296 296 296 296 295 295 295 294
216 217 221 223 224 229 240 260 215 209 208 208 208 210 211 210 213 215 207 200 200 195 193 196 191 178 180 187 192 195 198 202 205 207 209 209 210 211 215 219 220 223 231 236 239 243 246 250 253 248 234 221 212 208 209 211 214 217 222 229 236 243 251 257 263 271 278 284 288 291 293 294 295 296 296 296 297 297 298 298 298 298 297 297 297 296
212 212 215 220 228 240 249 262 261 218 209 210 210 209 210 210 210 210 208 208 207 196 188 193 194 191 190 189 190 192 195 198 202 204 206 208 212 215 217 217 218 223 233 240 243 244 244 245 245 238 226 216 207 205 208 212 217 221 225 231 237 245 252 259 267 274 279 284 287 290 293 295 296 297 297 298 298 299 299 299 299 299 299 299 299 298
209 207 209 216 226 240 248 258 267 227 205 206 207 207 208 210 211 213 215 222 219 211 204 196 196 205 206 196 194 194 193 195 198 202 206 209 211 213 214 216 220 228 237 241 243 247 244 238 235 229 220 212 205 204 208 214 219 223 227 233 240 249 256 264 270 274 278 282 285 289 292 294 295 296 297 298 299 299 300 300 300 300 300 301 300 300
208 203 207 218 227 241 258 264 259 233 206 197 198 200 201 204 209 212 213 223 231 225 221 211 201 206 211 204 198 195 194 195 197 201 205 208 211 213 215 219 225 232 236 236 241 248 244 234 227 220 212 207 206 207 211 216 221 225 231 239 247 255 262 266 268 272 276 281 285 289 291 293 294 296 298 299 300 300 301 301 302 302 302 302 302 302
207 198 202 219 225 241 258 249 228 223 204 187 189 195 197 199 204 207 209 217 225 222 217 207 196 192 196 200 196 193 196 197 198 202 205 208 211 214 216 221 225 228 229 233 241 244 238 226 217 210 206 207 209 212 217 220 223 227 235 244 253 259 261 264 267 271 277 283 286 288 290 293 296 299 300 301 302 303 304 304 305 305 305 305 305 305
202 191 197 220 223 237 246 216 196 207 199 179 179 185 189 192 195 200 205 212 219 215 200 188 186 184 183 188 191 194 196 197 198 201 204 207 211 215 217 219 220 221 226 235 241 239 229 216 209 206 208 210 211 214 220 221 221 225 236 246 254 259 261 264 269 275 280 285 288 290 294 297 299 301 303 304 306 307 307 308 308 308 309 308 308 308
199 194 204 217 216 229 231 194 175 188 195 173 170 175 182 186 189 195 201 205 213 213 199 188 189 187 179 178 184 190 196 198 199 201 204 206 209 211 214 216 218 222 231 239 241 235 221 210 205 206 208 209 212 215 218 217 218 226 239 248 254 257 260 266 272 279 284 288 291 294 296 299 301 304 306 308 309 309 310 310 311 312 312 312 312 312
196 198 205 208 211 227 223 188 163 176 191 188 183 178 181 186 187 190 197 202 205 208 207 202 198 190 181 178 181 187 193 197 199 201 204 206 205 205 209 215 223 229 232 236 235 225 213 208 205 206 208 210 213 215 214 214 220 231 241 247 251 256 262 270 278 285 289 292 295 298 300 304 307 308 310 311 312 313 313 314 315 315 315 316 315 315
191 194 199 201 210 223 216 195 176 184 189 194 202 197 183 184 185 187 193 202 202 201 203 202 196 188 184 184 185 187 189 192 195 197 198 200 207 214 216 219 225 227 225 226 223 211 205 206 207 205 206 209 212 213 214 218 226 235 241 246 253 260 268 277 285 291 295 297 299 302 305 309 311 312 314 315 316 317 318 319 319 319 320 320 321 322
190 193 198 200 209 217 208 194 180 164 156 178 195 203 192 183 182 182 186 194 199 198 195 194 193 188 185 186 187 187 186 184 185 188 188 192 205 218 226 224 220 217 213 213 214 208 199 198 203 203 203 207 210 211 214 219 228 236 242 250 259 267 275 283 291 296 299 302 304 307 310 312 314 317 319 321 322 323 323 324 325 326 328 330 333 335
195 199 198 198 209 207 167 126 113 123 141 173 182 191 197 191 187 187 189 192 196 196 192 192 193 189 186 187 186 185 182 179 180 185 185 188 200 205 204 206 205 202 202 204 207 203 194 193 198 201 202 205 206 207 211 220 231 239 247 257 265 273 280 289 298 302 304 306 308 311 314 316 320 324 326 328 329 329 330 332 336 340 344 347 350 351
199 205 199 197 211 194 146 114 98 106 185 191 182 183 194 194 190 191 196 196 196 196 194 194 196 191 186 185 184 181 178 177 180 184 184 187 193 188 183 187 192 194 200 201 197 191 190 194 197 199 201 201 202 207 214 225 235 241 252 263 270 279 289 300 306 307 308 310 312 315 318 323 329 332 335 338 339 342 346 351 356 359 1 2 2 1
198 204 203 203 210 199 171 146 134 157 174 174 177 182 189 193 187 185 196 202 198 196 191 189 195 196 189 185 186 183 179 179 182 185 187 188 186 180 178 181 184 187 192 194 190 188 190 193 194 196 198 200 205 213 219 228 237 245 259 269 279 290 301 308 311 312 313 315 318 323 328 334 341 346 352 357 0 6 10 10 11 11 11 10 8 7
190 197 198 201 204 197 184 165 152 174 177 170 173 177 179 184 181 177 190 208 201 193 185 179 185 196 195 189 189 190 191 193 192 190 190 186 178 174 175 178 181 185 187 188 189 189 188 188 190 195 200 204 210 219 231 244 253 262 273 282 293 302 306 310 314 317 321 324 330 339 346 357 5 12 17 18 20 22 20 18 18 18 16 14 12 11
183 188 191 195 196 189 182 169 157 190 190 177 174 175 171 170 176 179 189 209 198 189 183 177 179 193 199 194 191 192 193 195 199 196 191 184 175 171 173 175 178 181 185 190 192 191 187 187 193 202 206 210 222 242 264 276 280 285 292 296 301 303 304 308 313 320 330 341 356 11 23 28 29 29 30 29 30 30 26 24 24 23 21 19 17 14
181 181 181 185 184 179 178 172 160 188 192 180 176 178 175 172 179 186 189 193 188 186 186 183 181 187 197 198 198 196 188 183 191 195 189 183 177 174 173 175 178 182 189 192 190 189 191 196 205 215 218 227 251 270 283 294 299 300 299 296 294 295 295 301 310 329 358 24 38 42 45 42 38 37 36 36 37 35 32 30 28 27 24 22 20 18
183 179 173 174 175 171 170 166 155 192 194 187 183 186 187 185 190 199 199 198 194 193 194 189 182 182 189 195 198 194 183 181 189 192 187 182 178 175 175 178 182 187 191 189 186 188 198 205 213 225 233 246 269 286 294 300 299 294 290 286 283 281 276 276 330 55 59 57 54 52 50 46 44 43 42 42 43 41 38 36 34 31 28 25 23 21
188 187 180 178 179 177 177 183 204 216 200 194 194 196 195 191 193 201 204 205 207 206 203 195 185 181 182 187 190 186 181 181 185 188 187 183 179 177 177 182 187 188 187 188 189 193 202 210 219 232 246 261 277 286 289 290 286 281 279 273 262 242 195 144 110 92 78 68 61 57 56 53 51 49 47 47 47 45 43 41 38 35 32 28 26 24
193 198 198 195 194 196 199 206 216 220 207 202 202 200 196 192 191 196 198 200 206 208 205 198 187 181 179 181 183 181 181 182 183 186 189 185 180 180 180 182 186 188 188 191 193 195 202 211 220 235 253 265 274 279 280 276 270 267 261 242 214 176 144 124 109 94 82 73 67 63 62 59 54 51 50 49 48 46 44 43 40 37 34 31 28 26
200 204 208 208 203 202 207 212 215 218 215 208 205 202 197 194 196 197 196 199 204 202 199 197 191 182 177 176 178 180 181 179 179 184 188 186 184 185 184 182 185 189 192 196 197 197 202 211 221 240 255 262 266 268 263 250 232 211 198 191 175 152 134 118 104 93 85 78 73 69 66 62 57 54 51 49 47 45 43 41 39 37 35 33 30 28
201 203 205 205 203 202 205 212 217 222 220 211 207 206 203 201 202 200 193 194 200 197 194 195 191 181 174 172 176 181 182 179 179 183 187 187 189 189 186 186 188 189 193 201 201 199 205 213 225 244 254 257 257 249 232 212 187 169 167 165 153 139 125 112 101 94 87 82 78 74 70 65 59 55 50 45 43 41 40 38 37 35 33 32 32 30
198 200 200 201 204 205 208 215 218 216 210 205 204 206 209 208 207 204 195 192 196 195 189 188 184 176 169 167 173 182 184 181 181 185 188 191 194 191 186 188 191 191 196 203 201 200 206 213 226 243 250 250 244 224 200 182 167 158 156 152 141 127 115 107 99 93 88 84 80 76 70 64 58 53 48 42 38 36 36 36 35 33 32 31 30 30
200 202 205 206 209 211 212 214 214 208 203 200 200 204 209 210 209 209 205 199 198 197 190 183 180 177 174 171 175 183 185 182 183 188 190 194 196 191 186 187 191 194 201 203 199 201 208 212 224 240 243 235 218 199 183 169 160 153 148 142 132 119 110 104 97 93 89 84 79 73 66 60 54 50 46 41 36 33 33 34 34 32 31 30 29 28
201 203 205 207 210 213 214 214 213 209 205 201 198 199 203 205 206 208 207 203 203 203 196 187 183 183 182 180 180 184 186 184 184 187 193 199 199 193 186 185 190 198 203 201 198 206 210 212 222 233 228 211 196 182 170 161 157 152 145 138 128 119 113 107 101 97 91 80 72 65 59 56 51 45 43 41 37 34 33 33 32 31 30 30 29 28
200 202 203 207 214 219 223 226 221 214 206 203 201 199 197 196 198 199 201 204 206 205 199 194 191 188 185 182 182 185 187 187 185 187 195 202 200 194 190 193 202 205 201 196 200 210 211 215 225 223 207 193 183 172 164 162 159 153 146 138 130 124 122 117 109 101 90 79 70 60 54 53 48 42 40 39 37 34 33 33 31 29 28 29 28 27
Height
3063 3063 3060 3058 3061 3067 3072 3075 3079 3083 3087 3089 3091 3093 3095 3096 3098 3100 3103 3105 3107 3108 3110 3112 3114 3114 3114 3115 3116 3117 3119 3120 3121 3121 3121 3123 3125 3127 3129 3131 3132 3134 3135 3137 3138 3140 3141 3142 3142 3143 3143 3144 3145 3146 3147 3148 3148 3149 3150 3151 3152 3153 3154 3155 3156 3157 3157 3157 3157 3157 3157 3157 3158 3158 3157 3157 3157 3156 3156 3155 3155 3154 3154 3153 3153 3152
3061 3057 3054 3057 3063 3069 3073 3076 3079 3082 3086 3088 3089 3092 3093 3095 3097 3099 3102 3104 3106 3107 3109 3111 3112 3113 3113 3114 3115 3116 3116 3117 3118 3118 3119 3121 3123 3125 3127 3129 3130 3132 3133 3135 3137 3138 3140 3141 3142 3142 3143 3144 3145 3146 3147 3148 3148 3149 3150 3151 3152 3153 3154 3155 3156 3156 3157 3157 3157 3157 3157 3157 3157 3157 3157 3156 3156 3156 3155 3155 3154 3153 3152 3152 3151 3150
3054 3050 3052 3060 3065 3069 3073 3075 3078 3081 3084 3086 3088 3090 3091 3093 3096 3098 3100 3102 3104 3106 3107 3110 3111 3112 3112 3112 3113 3114 3114 3114 3114 3114 3116 3120 3122 3124 3125 3127 3128 3130 3132 3133 3135 3137 3139 3140 3141 3142 3143 3143 3145 3146 3147 3148 3148 3149 3150 3151 3152 3153 3154 3155 3155 3156 3156 3156 3156 3156 3156 3156 3156 3156 3156 3155 3155 3155 3154 3154 3153 3152 3151 3150 3149 3148
3048 3048 3053 3060 3064 3068 3071 3074 3077 3079 3081 3083 3085 3087 3088 3092 3095 3097 3099 3101 3103 3104 3106 3108 3109 3110 3110 3111 3111 3111 3111 3112 3111 3110 3113 3117 3120 3122 3124 3126 3128 3129 3130 3132 3134 3136 3138 3139 3141 3142 3143 3143 3144 3145 3147 3148 3148 3149 3150 3151 3152 3153 3154 3155 3155 3156 3156 3156 3156 3156 3156 3156 3156 3155 3155 3155 3154 3154 3153 3152 3151 3151 3150 3149 3148 3147
3046 3049 3054 3059 3063 3067 3069 3071 3074 3076 3078 3080 3082 3084 3087 3092 3094 3096 3099 3100 3102 3103 3104 3106 3108 3107 3107 3108 3108 3108 3109 3109 3108 3109 3111 3114 3117 3120 3123 3126 3128 3129 3130 3131 3133 3135 3136 3138 3140 3141 3143 3143 3144 3145 3146 3147 3148 3149 3150 3151 3152 3153 3154 3154 3155 3155 3155 3155 3155 3155 3155 3155 3155 3155 3154 3154 3153 3152 3152 3151 3150 3149 3149 3148 3146 3145
3047 3050 3053 3057 3061 3064 3067 3068 3070 3073 3076 3078 3081 3083 3088 3092 3094 3096 3098 3099 3100 3102 3102 3104 3106 3106 3106 3106 3105 3106 3108 3108 3108 3110 3113 3115 3118 3121 3122 3125 3127 3128 3129 3131 3132 3134 3136 3138 3140 3141 3143 3143 3144 3145 3146 3147 3148 3149 3150 3151 3152 3152 3153 3154 3154 3154 3155 3155 3155 3155 3155 3154 3154 3153 3153 3152 3152 3151 3150 3150 3149 3148 3147 3146 3145 3144
3046 3050 3052 3055 3058 3062 3064 3066 3069 3072 3075 3077 3079 3084 3090 3091 3093 3095 3097 3098 3100 3100 3101 3102 3104 3105 3104 3104 3104 3104 3106 3107 3110 3112 3114 3118 3122 3124 3124 3125 3126 3127 3128 3129 3131 3133 3135 3137 3139 3141 3142 3143 3144 3145 3146 3146 3147 3148 3149 3150 3151 3152 3152 3153 3153 3154 3154 3154 3154 3154 3154 3153 3153 3152 3152 3151 3151 3150 3149 3148 3147 3146 3146 3145 3143 3142
3043 3049 3051 3053 3057 3060 3060 3061 3066 3071 3075 3077 3079 3085 3090 3090 3092 3094 3096 3098 3099 3100 3101 3100 3101 3102 3101 3101 3101 3103 3104 3106 3109 3111 3113 3116 3122 3124 3125 3125 3126 3127 3127 3129 3130 3132 3134 3136 3138 3140 3141 3143 3143 3144 3145 3146 3147 3148 3149 3150 3150 3151 3152 3152 3153 3153 3153 3153 3153 3153 3153 3152 3152 3151 3151 3150 3149 3148 3147 3146 3146 3145 3144 3143 3142 3140
3042 3046 3049 3051 3055 3055 3055 3058 3065 3071 3075 3077 3081 3087 3089 3090 3091 3093 3095 3097 3099 3100 3099 3098 3099 3098 3097 3097 3099 3101 3102 3104 3106 3109 3111 3114 3119 3122 3124 3125 3125 3126 3127 3128 3130 3131 3133 3134 3136 3139 3140 3142 3143 3144 3145 3145 3146 3148 3148 3149 3150 3151 3151 3152 3152 3152 3152 3152 3152 3152 3152 3151 3151 3151 3150 3149 3148 3147 3146 3145 3144 3144 3143 3142 3141 3139
3043 3045 3049 3052 3052 3052 3054 3060 3066 3070 3074 3078 3082 3086 3088 3090 3091 3093 3095 3096 3098 3099 3095 3093 3095 3095 3094 3094 3096 3098 3098 3100 3104 3108 3110 3113 3117 3121 3122 3123 3123 3124 3126 3127 3129 3130 3132 3133 3135 3138 3139 3141 3142 3143 3144 3145 3146 3147 3148 3149 3149 3150 3151 3151 3151 3151 3151 3151 3151 3151 3150 3150 3150 3149 3149 3148 3147 3146 3145 3145 3144 3143 3142 3141 3140 3138
3043 3046 3050 3050 3050 3052 3057 3062 3066 3070 3075 3078 3082 3085 3088 3089 3091 3093 3094 3095 3098 3095 3088 3088 3091 3092 3092 3091 3092 3094 3095 3097 3101 3106 3109 3112 3116 3118 3119 3120 3122 3123 3124 3126 3127 3128 3130 3132 3134 3137 3138 3139 3141 3142 3143 3144 3145 3146 3147 3148 3149 3150 3150 3150 3150 3150 3150 3150 3150 3149 3149 3149 3148 3148 3147 3146 3146 3145 3145 3144 3143 3142 3141 3140 3138 3137
3042 3044 3046 3047 3049 3053 3057 3061 3065 3069 3074 3077 3080 3084 3086 3088 3090 3092 3092 3094 3094 3088 3081 3084 3089 3091 3090 3088 3089 3093 3095 3098 3100 3102 3105 3109 3113 3115 3117 3118 3120 3122 3123 3124 3126 3127 3129 3131 3133 3135 3137 3138 3140 3141 3142 3144 3144 3145 3146 3146 3147 3148 3148 3148 3148 3148 3148 3148 3148 3148 3148 3147 3147 3146 3146 3145 3145 3145 3144 3143 3142 3141 3140 3138 3137 3135
3039 3041 3043 3046 3049 3051 3055 3058 3063 3067 3071 3074 3077 3080 3083 3085 3088 3089 3089 3088 3085 3080 3079 3084 3088 3089 3088 3086 3089 3092 3095 3097 3100 3103 3104 3107 3111 3113 3115 3117 3119 3121 3122 3124 3125 3125 3127 3129 3132 3134 3136 3137 3138 3140 3141 3143 3143 3144 3144 3145 3145 3145 3146 3146 3146 3147 3147 3147 3147 3147 3147 3146 3145 3145 3145 3144 3144 3144 3143 3142 3141 3140 3139 3137 3136 3134
3037 3040 3042 3043 3045 3047 3051 3054 3056 3060 3064 3068 3071 3073 3076 3079 3082 3084 3084 3082 3080 3078 3080 3083 3086 3087 3086 3086 3088 3091 3093 3096 3099 3102 3105 3108 3111 3112 3114 3116 3117 3119 3120 3122 3124 3125 3127 3128 3130 3132 3134 3136 3137 3139 3140 3141 3142 3142 3143 3143 3143 3143 3144 3144 3144 3145 3145 3146 3146 3146 3145 3145 3144 3144 3143 3143 3143 3142 3141 3140 3139 3139 3137 3136 3135 3133
3034 3036 3034 3036 3040 3043 3047 3050 3053 3057 3062 3066 3069 3072 3073 3073 3075 3078 3078 3079 3079 3079 3081 3084 3085 3084 3084 3085 3086 3089 3093 3094 3097 3101 3105 3108 3110 3111 3113 3114 3115 3117 3119 3121 3122 3124 3125 3127 3129 3130 3132 3134 3136 3137 3138 3139 3140 3141 3141 3141 3141 3142 3142 3142 3143 3143 3144 3144 3144 3144 3144 3144 3143 3143 3142 3141 3141 3140 3139 3139 3138 3137 3136 3135 3133 3132
3031 3030 3030 3035 3039 3042 3046 3050 3054 3059 3062 3066 3069 3071 3070 3068 3071 3075 3076 3077 3078 3080 3082 3083 3083 3082 3082 3084 3085 3088 3091 3093 3096 3100 3103 3105 3108 3110 3112 3113 3114 3116 3118 3119 3121 3122 3124 3125 3127 3129 3130 3131 3133 3135 3136 3137 3137 3138 3139 3139 3140 3140 3141 3141 3142 3142 3143 3143 3143 3142 3142 3142 3141 3141 3141 3140 3139 3138 3138 3137 3136 3135 3134 3133 3131 3130
3029 3029 3031 3037 3039 3041 3046 3050 3053 3057 3059 3063 3066 3065 3063 3067 3073 3074 3074 3076 3077 3079 3082 3083 3081 3081 3082 3084 3085 3086 3088 3091 3094 3097 3101 3103 3106 3108 3111 3112 3114 3115 3117 3118 3120 3121 3122 3123 3125 3126 3127 3129 3131 3132 3133 3134 3135 3136 3137 3137 3138 3139 3139 3140 3140 3141 3141 3141 3141 3140 3140 3140 3140 3139 3139 3138 3138 3137 3136 3135 3134 3133 3132 3131 3130 3128
3027 3029 3032 3036 3038 3041 3046 3050 3053 3055 3058 3060 3061 3060 3064 3071 3076 3074 3074 3076 3076 3078 3082 3082 3081 3080 3081 3082 3084 3085 3086 3088 3091 3094 3098 3102 3104 3107 3110 3111 3113 3114 3116 3117 3119 3120 3121 3122 3123 3124 3125 3127 3129 3130 3131 3131 3133 3134 3135 3135 3136 3137 3137 3138 3139 3139 3139 3139 3139 3138 3138 3138 3138 3137 3137 3136 3136 3135 3134 3133 3132 3131 3131 3129 3128 3127
3028 3030 3031 3034 3037 3041 3046 3049 3051 3053 3056 3058 3058 3060 3066 3071 3071 3071 3073 3073 3074 3079 3082 3082 3081 3080 3078 3078 3079 3082 3085 3088 3092 3095 3097 3100 3103 3105 3108 3109 3111 3112 3114 3116 3117 3118 3119 3120 3120 3122 3124 3126 3127 3128 3128 3129 3131 3132 3133 3133 3134 3135 3136 3137 3137 3137 3137 3137 3137 3136 3136 3136 3136 3135 3135 3134 3134 3133 3132 3131 3130 3129 3129 3128 3127 3125
3028 3029 3029 3031 3036 3041 3044 3045 3045 3047 3051 3055 3058 3061 3064 3067 3067 3067 3069 3069 3070 3078 3081 3082 3081 3078 3076 3076 3077 3080 3084 3088 3092 3094 3096 3098 3101 3103 3105 3107 3109 3111 3113 3114 3116 3117 3117 3118 3119 3121 3123 3124 3125 3125 3125 3126 3129 3130 3131 3132 3133 3134 3135 3135 3135 3136 3136 3136 3135 3135 3135 3134 3134 3133 3133 3132 3132 3131 3130 3129 3128 3128 3127 3126 3125 3124
3027 3029 3029 3030 3035 3039 3039 3038 3038 3041 3046 3050 3054 3057 3059 3061 3063 3065 3067 3066 3068 3072 3076 3079 3079 3075 3074 3076 3078 3079 3083 3087 3089 3091 3094 3097 3099 3101 3104 3106 3108 3110 3112 3113 3114 3115 3116 3117 3118 3120 3121 3122 3123 3123 3123 3124 3126 3128 3129 3130 3132 3133 3134 3134 3134 3134 3134 3134 3134 3133 3133 3133 3133 3132 3131 3131 3130 3129 3129 3128 3127 3126 3125 3124 3123 3122
3026 3028 3028 3030 3033 3034 3033 3035 3038 3041 3045 3048 3051 3054 3054 3056 3058 3061 3063 3063 3064 3066 3068 3072 3073 3071 3072 3076 3078 3080 3083 3086 3088 3090 3093 3095 3098 3100 3102 3105 3107 3109 3110 3111 3112 3113 3114 3115 3116 3118 3119 3120 3121 3121 3121 3122 3124 3126 3128 3129 3131 3132 3132 3132 3132 3132 3132 3132 3132 3132 3132 3132 3131 3131 3130 3129 3129 3128 3127 3126 3125 3124 3123 3122 3121 3120
3025 3028 3028 3029 3031 3031 3033 3036 3040 3043 3046 3048 3050 3053 3054 3055 3056 3057 3058 3060 3061 3063 3065 3067 3069 3069 3071 3074 3076 3079 3082 3084 3087 3089 3092 3094 3096 3099 3102 3104 3107 3108 3109 3109 3110 3111 3112 3114 3115 3117 3117 3118 3119 3119 3120 3121 3123 3125 3127 3128 3129 3129 3130 3130 3131 3131 3131 3131 3131 3130 3130 3130 3130 3129 3129 3128 3127 3126 3125 3124 3123 3122 3121 3120 3118 3117
3025 3026 3027 3028 3029 3030 3032 3035 3038 3041 3044 3046 3048 3050 3052 3054 3055 3056 3057 3058 3060 3061 3063 3067 3069 3069 3070 3072 3075 3077 3080 3083 3086 3088 3090 3093 3096 3099 3102 3103 3104 3105 3106 3107 3108 3109 3111 3112 3114 3115 3115 3116 3117 3117 3118 3120 3122 3124 3125 3126 3127 3128 3128 3129 3129 3129 3129 3129 3129 3129 3129 3128 3128 3128 3127 3126 3125 3124 3123 3122 3121 3120 3119 3117 3116 3115
3022 3024 3025 3028 3029 3029 3031 3033 3034 3036 3039 3041 3043 3046 3049 3052 3054 3055 3056 3057 3058 3058 3060 3063 3066 3067 3068 3071 3073 3076 3079 3081 3083 3086 3089 3092 3095 3098 3100 3101 3102 3103 3104 3105 3106 3108 3109 3111 3112 3113 3113 3114 3115 3116 3117 3120 3121 3123 3124 3124 3125 3126 3127 3127 3128 3128 3128 3128 3127 3127 3127 3126 3126 3126 3125 3124 3123 3122 3121 3120 3119 3118 3116 3115 3113 3112
3021 3023 3024 3026 3028 3028 3029 3030 3030 3032 3034 3037 3039 3042 3045 3048 3051 3052 3053 3054 3054 3055 3056 3058 3060 3064 3067 3069 3072 3074 3077 3079 3082 3085 3088 3092 3095 3097 3098 3099 3100 3101 3102 3104 3106 3107 3109 3109 3110 3110 3110 3111 3112 3114 3117 3119 3120 3121 3122 3123 3124 3124 3125 3125 3126 3126 3126 3126 3125 3125 3125 3124 3124 3123 3123 3122 3121 3120 3119 3118 3116 3115 3114 3112 3111 3109
3020 3022 3023 3024 3026 3026 3027 3028 3029 3031 3032 3033 3036 3039 3042 3045 3048 3049 3050 3051 3051 3053 3055 3055 3057 3060 3064 3066 3069 3071 3074 3077 3080 3083 3086 3090 3093 3095 3096 3098 3099 3100 3101 3103 3105 3106 3107 3108 3107 3108 3108 3109 3111 3114 3116 3118 3119 3120 3121 3122 3122 3122 3123 3123 3124 3124 3124 3124 3124 3123 3123 3122 3122 3121 3121 3120 3119 3118 3116 3115 3114 3113 3111 3110 3108 3107
3017 3019 3021 3023 3024 3025 3026 3026 3028 3029 3030 3031 3034 3037 3039 3042 3045 3047 3048 3049 3050 3051 3053 3055 3056 3058 3060 3062 3065 3067 3070 3073 3076 3080 3083 3086 3089 3092 3094 3096 3098 3099 3100 3102 3104 3105 3105 3105 3105 3106 3107 3108 3111 3114 3116 3117 3118 3119 3119 3120 3120 3121 3121 3122 3122 3123 3122 3122 3122 3121 3121 3120 3120 3119 3118 3117 3116 3115 3114 3113 3111 3110 3108 3107 3105 3104
3015 3017 3020 3022 3023 3024 3025 3026 3027 3027 3027 3029 3032 3034 3037 3040 3042 3044 3046 3048 3049 3049 3050 3053 3055 3056 3058 3060 3061 3064 3067 3069 3073 3077 3081 3084 3087 3089 3092 3095 3097 3098 3100 3102 3103 3103 3103 3103 3104 3104 3106 3109 3112 3114 3115 3116 3117 3117 3118 3119 3119 3120 3120 3121 3121 3121 3120 3120 3120 3119 3119 3118 3118 3117 3116 3115 3114 3112 3111 3110 3108 3107 3106 3104 3102 3101
3014 3017 3019 3021 3023 3024 3025 3026 3026 3027 3026 3027 3030 3032 3035 3037 3039 3042 3044 3046 3047 3048 3049 3052 3053 3055 3057 3058 3060 3063 3066 3070 3073 3077 3080 3083 3085 3088 3091 3093 3096 3097 3099 3100 3101 3102 3102 3102 3103 3104 3106 3109 3111 3112 3114 3115 3116 3117 3118 3118 3118 3119 3119 3119 3119 3118 3118 3118 3118 3117 3117 3116 3116 3115 3114 3112 3111 3110 3108 3107 3106 3104 3103 3101 3099 3098
3013 3016 3018 3021 3024 3024 3025 3026 3027 3027 3025 3025 3027 3030 3032 3035 3037 3039 3041 3043 3045 3046 3048 3049 3050 3053 3056 3058 3061 3064 3067 3070 3073 3076 3080 3082 3084 3087 3089 3092 3094 3095 3097 3098 3099 3100 3101 3101 3102 3104 3106 3108 3109 3111 3113 3115 3116 3116 3117 3117 3117 3117 3117 3117 3117 3116 3116 3116 3116 3115 3115 3114 3113 3112 3111 3110 3108 3107 3106 3104 3103 3101 3100 3098 3096 3094
3011 3014 3018 3022 3024 3024 3024 3025 3026 3027 3025 3024 3025 3027 3029 3032 3034 3036 3038 3041 3043 3043 3045 3047 3049 3051 3054 3057 3060 3063 3066 3069 3072 3075 3078 3081 3083 3086 3088 3090 3092 3093 3095 3096 3098 3099 3099 3100 3101 3103 3105 3107 3109 3111 3112 3114 3115 3115 3115 3116 3116 3116 3115 3115 3115 3114 3114 3114 3114 3113 3113 3112 3111 3110 3108 3107 3106 3104 3103 3101 3100 3098 3097 3095 3093 3091
3010 3014 3019 3022 3023 3023 3023 3023 3023 3025 3025 3024 3024 3025 3027 3029 3032 3034 3037 3040 3042 3042 3044 3046 3048 3050 3052 3054 3057 3061 3064 3066 3069 3072 3075 3078 3082 3085 3087 3089 3091 3092 3094 3096 3097 3098 3098 3099 3100 3102 3104 3106 3108 3110 3111 3112 3113 3113 3114 3114 3114 3114 3113 3113 3113 3112 3112 3112 3111 3111 3110 3109 3108 3107 3106 3105 3103 3101 3100 3098 3097 3095 3094 3092 3090 3088
3010 3014 3018 3021 3021 3021 3022 3022 3021 3022 3023 3023 3024 3025 3026 3028 3030 3032 3035 3038 3040 3042 3044 3046 3048 3050 3051 3053 3055 3058 3061 3065 3069 3072 3075 3079 3082 3085 3087 3089 3090 3092 3094 3095 3095 3096 3097 3098 3099 3102 3104 3106 3107 3109 3110 3110 3111 3112 3112 3112 3112 3112 3111 3111 3111 3111 3110 3110 3109 3109 3108 3107 3106 3105 3104 3102 3100 3099 3097 3095 3094 3092 3091 3089 3087 3085
3009 3012 3016 3019 3020 3020 3021 3020 3020 3020 3021 3022 3023 3025 3026 3028 3029 3031 3034 3037 3039 3041 3043 3046 3048 3049 3051 3053 3055 3057 3061 3065 3070 3075 3078 3080 3082 3084 3086 3088 3089 3091 3091 3092 3093 3094 3095 3098 3100 3102 3104 3105 3106 3108 3108 3109 3110 3111 3111 3110 3110 3110 3110 3110 3109 3109 3108 3108 3107 3107 3106 3105 3104 3103 3101 3100 3098 3096 3095 3093 3091 3090 3088 3086 3085 3083
3009 3011 3014 3018 3020 3020 3019 3018 3018 3019 3021 3021 3022 3024 3026 3028 3029 3030 3032 3035 3037 3039 3041 3044 3046 3048 3050 3052 3054 3058 3061 3065 3070 3074 3077 3079 3082 3084 3085 3087 3088 3088 3089 3091 3093 3094 3095 3098 3100 3101 3103 3104 3105 3106 3107 3108 3109 3109 3109 3109 3109 3108 3108 3108 3107 3107 3107 3106 3106 3105 3104 3104 3102 3101 3100 3098 3096 3094 3093 3091 3089 3088 3086 3084 3082 3080
3008 3010 3013 3017 3018 3018 3018 3017 3018 3020 3021 3021 3022 3023 3025 3027 3028 3030 3032 3034 3036 3038 3040 3042 3045 3047 3049 3051 3054 3057 3061 3065 3069 3072 3075 3078 3081 3083 3084 3086 3087 3088 3089 3091 3093 3095 3096 3097 3099 3101 3102 3103 3105 3106 3106 3107 3108 3108 3108 3107 3107 3107 3106 3106 3106 3106 3105 3105 3104 3104 3103 3102 3101 3100 3098 3097 3095 3093 3091 3089 3088 3086 3084 3082 3080 3078
3007 3009 3011 3015 3017 3017 3016 3017 3020 3021 3021 3020 3021 3023 3025 3027 3029 3030 3032 3033 3035 3037 3039 3041 3043 3045 3047 3050 3053 3056 3060 3064 3067 3070 3073 3076 3078 3081 3083 3085 3086 3088 3089 3091 3093 3095 3096 3097 3099 3100 3102 3103 3104 3105 3105 3106 3106 3106 3106 3105 3105 3105 3105 3105 3105 3105 3104 3104 3103 3102 3102 3101 3100 3098 3097 3096 3094 3092 3090 3089 3087 3085 3083 3081 3079 3077
3007 3009 3011 3013 3015 3015 3015 3017 3019 3020 3020 3020 3021 3023 3025 3026 3028 3031 3032 3032 3034 3036 3038 3040 3042 3045 3046 3048 3051 3054 3057 3060 3063 3066 3069 3072 3076 3079 3081 3083 3085 3087 3089 3090 3092 3094 3096 3097 3099 3100 3101 3102 3103 3104 3104 3105 3105 3105 3104 3104 3104 3104 3104 3104 3104 3104 3103 3103 3102 3101 3100 3099 3098 3097 3096 3095 3093 3091 3090 3088 3086 3084 3082 3080 3078 3076
3006 3009 3010 3011 3012 3013 3014 3015 3017 3018 3018 3019 3021 3022 3024 3026 3028 3030 3030 3030 3032 3036 3037 3039 3041 3044 3046 3047 3050 3052 3054 3056 3059 3062 3066 3071 3074 3078 3081 3083 3085 3086 3088 3090 3091 3093 3095 3097 3098 3099 3100 3101 3102 3102 3103 3103 3103 3103 3103 3103 3103 3103 3103 3103 3103 3103 3102 3102 3101 3100 3099 3098 3097 3096 3095 3094 3092 3091 3089 3087 3086 3084 3082 3080 3077 3075
3006 3007 3008 3009 3011 3012 3013 3014 3016 3016 3017 3019 3020 3022 3024 3025 3027 3028 3028 3029 3032 3035 3037 3038 3040 3043 3045 3047 3049 3051 3054 3057 3060 3062 3065 3069 3073 3076 3079 3082 3084 3087 3088 3089 3091 3093 3095 3096 3097 3098 3099 3100 3100 3101 3101 3102 3102 3102 3102 3102 3102 3102 3102 3102 3102 3102 3101 3101 3100 3100 3099 3098 3097 3096 3095 3093 3092 3090 3089 3088 3086 3084 3082 3080 3077 3075
3004 3006 3007 3008 3010 3011 3012 3014 3015 3016 3017 3018 3019 3021 3022 3023 3024 3025 3027 3029 3032 3034 3035 3037 3039 3041 3044 3047 3049 3052 3055 3059 3062 3064 3066 3069 3072 3075 3078 3081 3083 3085 3087 3089 3090 3092 3094 3095 3096 3096 3097 3098 3099 3099 3100 3100 3100 3100 3100 3101 3101 3102 3102 3101 3101 3101 3101 3100 3100 3099 3098 3097 3096 3096 3095 3093 3092 3091 3089 3088 3086 3084 3082 3080 3077 3075
3002 3004 3005 3007 3009 3010 3012 3013 3014 3015 3015 3017 3018 3018 3020 3022 3023 3025 3027 3029 3031 3033 3034 3036 3037 3040 3043 3046 3049 3053 3056 3059 3062 3065 3067 3070 3072 3075 3078 3081 3083 3085 3087 3088 3090 3092 3093 3094 3095 3095 3096 3097 3097 3098 3098 3099 3099 3100 3100 3101 3101 3101 3101 3101 3101 3101 3100 3100 3100 3099 3098 3097 3097 3096 3095 3094 3092 3091 3090 3088 3086 3084 3082 3080 3078 3076
3002 3003 3004 3006 3008 3009 3011 3012 3012 3013 3014 3016 3017 3017 3019 3022 3024 3025 3027 3028 3030 3032 3034 3035 3037 3039 3042 3045 3048 3052 3055 3058 3061 3064 3067 3070 3072 3075 3078 3081 3083 3084 3086 3089 3090 3092 3092 3093 3094 3095 3095 3096 3097 3097 3098 3098 3099 3099 3100 3100 3100 3100 3100 3101 3101 3101 3100 3100 3100 3099 3099 3098 3097 3096 3095 3094 3093 3091 3090 3089 3087 3085 3083 3081 3079 3077
3001 3003 3004 3005 3007 3008 3009 3010 3011 3012 3013 3015 3016 3018 3020 3022 3023 3025 3026 3027 3029 3031 3033 3035 3036 3039 3041 3045 3048 3052 3055 3058 3061 3064 3067 3070 3072 3075 3077 3080 3082 3084 3086 3088 3090 3091 3091 3092 3093 3094 3095 3096 3096 3097 3097 3098 3099 3099 3099 3100 3100 3100 3101 3101 3101 3101 3101 3100 3100 3099 3099 3098 3098 3097 3096 3094 3093 3092 3090 3089 3088 3086 3084 3082 3080 3077
3001 3002 3004 3005 3006 3007 3008 3009 3011 3012 3013 3014 3016 3018 3020 3021 3023 3024 3026 3027 3029 3030 3033 3035 3037 3039 3041 3044 3048 3051 3055 3058 3061 3063 3066 3069 3071 3074 3076 3079 3081 3083 3086 3088 3089 3090 3091 3093 3094 3095 3096 3096 3096 3097 3098 3098 3099 3099 3100 3100 3100 3100 3101 3101 3101 3101 3101 3101 3100 3100 3099 3099 3098 3098 3096 3095 3093 3092 3091 3090 3088 3087 3085 3083 3081 3078
3001 3002 3003 3004 3005 3006 3007 3008 3010 3011 3012 3013 3015 3017 3019 3020 3022 3023 3025 3027 3029 3030 3032 3035 3037 3039 3041 3044 3047 3051 3054 3057 3060 3062 3065 3068 3070 3072 3075 3077 3080 3082 3085 3087 3088 3090 3091 3093 3094 3095 3095 3096 3096 3097 3098 3098 3099 3099 3100 3100 3100 3101 3101 3101 3101 3101 3101 3101 3101 3100 3100 3100 3099 3098 3097 3095 3094 3093 3092 3090 3089 3087 3086 3084 3082 3079
3000 3002 3002 3003 3005 3006 3007 3008 3009 3010 3011 3012 3014 3016 3018 3020 3021 3023 3025 3027 3028 3030 3032 3035 3037 3039 3041 3044 3047 3051 3054 3057 3060 3062 3064 3066 3069 3071 3074 3076 3079 3082 3084 3086 3087 3089 3091 3093 3094 3095 3095 3096 3096 3097 3098 3098 3099 3099 3100 3100 3100 3100 3101 3101 3101 3101 3101 3101 3101 3101 3100 3100 3099 3098 3097 3096 3095 3094 3093 3091 3090 3088 3086 3084 3082 3080
2999 3001 3002 3003 3004 3005 3006 3007 3009 3010 3011 3012 3013 3015 3017 3019 3021 3022 3024 3026 3028 3030 3032 3034 3037 3039 3041 3043 3046 3050 3053 3056 3059 3062 3064 3066 3068 3070 3072 3075 3078 3081 3083 3085 3087 3089 3091 3092 3093 3094 3095 3095 3096 3097 3097 3098 3098 3099 3099 3100 3100 3101 3101 3101 3102 3102 3102 3102 3102 3101 3100 3100 3099 3099 3098 3097 3096 3094 3093 3092 3090 3088 3087 3084 3082 3080
2998 2999 3001 3002 3004 3005 3007 3008 3009 3010 3011 3012 3013 3014 3016 3018 3020 3021 3023 3025 3028 3030 3032 3034 3036 3039 3041 3044 3047 3050 3053 3056 3059 3061 3064 3065 3066 3068 3070 3074 3077 3080 3082 3084 3086 3088 3090 3092 3093 3094 3094 3095 3096 3096 3097 3098 3098 3099 3099 3100 3100 3101 3101 3102 3102 3103 3103 3102 3102 3101 3101 3100 3100 3099 3099 3098 3097 3095 3093 3092 3090 3089 3087 3085 3083 3081
2998 2999 3001 3003 3004 3006 3007 3008 3009 3010 3011 3012 3013 3014 3016 3017 3019 3021 3023 3025 3027 3029 3031 3034 3035 3037 3040 3043 3047 3050 3053 3056 3058 3060 3062 3065 3067 3069 3071 3074 3076 3079 3081 3083 3086 3088 3089 3091 3092 3093 3094 3095 3095 3096 3097 3098 3099 3099 3100 3100 3101 3101 3102 3102 3103 3103 3103 3103 3102 3102 3101 3101 3101 3100 3099 3098 3097 3096 3094 3092 3091 3089 3087 3085 3083 3081